Regional Weather Roundup
Issued by NWS Sterling, VA

Home | Current Version | Previous Version | Graphics & Text | Print | Product List | Glossary On
Versions: 1 2 3 4 5 6 7 8 9 10 11 12 13 14 15 16 17 18 19 20 21 22 23 24 25 26 27
000
ASUS41 KLWX 240810
RWRLWX

REGIONAL WEATHER ROUNDUP
NATIONAL WEATHER SERVICE BALTIMORE MD/WASHINGTON DC
400 AM EDT MON APR 24 2017

Note: "FAIR" indicates few or no clouds below 12,000 feet
with no significant weather and/or obstructions to visibility.
 TC=TEMPERATURE CELSIUS

 * =Non NWS site. Station does not report precipitation (e.g. rain,
    snow, etc.), thunder, or fog.

DCZ001-MDZ009-015-VAZ040>042-051-053>054-240900-
WASHINGTON METRO

CITY           SKY/WX    TMP DP  RH WIND       PRES   REMARKS
WASHINGTON NAT LGT RAIN  55  45  68 E6        30.07S
DULLES         LGT RAIN  53  47  79 NE3       30.06F
ANDREWS AFB    CLOUDY    51  46  80 NE3       30.05S
FT BELVOIR     CLOUDY    52  49  89 CALM      30.06S
QUANTICO       CLOUDY    56  47  71 E13       30.06F
COLLEGE PARK*  CLOUDY    52  48  86 CALM      30.07S
LEESBURG*      CLOUDY    52  50  93 NE3       30.07F
MANASSAS*      LGT RAIN  52  48  86 NE5       30.07S

$$

MDZ006>007-011-014-240900-
BALTIMORE METRO

CITY           SKY/WX    TMP DP  RH WIND       PRES   REMARKS
BWI AIRPORT    CLOUDY    53  46  77 E7        30.07S
MD SCIENCE CTR   N/A     55  44  66 MISG      30.08S
MARTIN STATE   CLOUDY    54  48  82 CALM      30.10S
ANNAPOLIS      CLOUDY    54  47  77 NE5       30.06F
FORT MEADE*    CLOUDY    50  45  81 CALM      30.09F

$$

MDZ012-015-019>023-240900-
MARYLAND EASTERN SHORE

CITY           SKY/WX    TMP DP  RH WIND       PRES   REMARKS
OCEAN CITY     CLOUDY    51  46  83 NE13G20   30.05F
SALISBURY      LGT RAIN  50  49  96 NE9       30.04F
BAY BRIDGE AP* CLOUDY    52  46  82 E5        30.07S
EASTON*        CLOUDY    52  46  79 E5        30.11R

$$

MDZ017>025-240900-
SOUTHERN MARYLAND

CITY           SKY/WX    TMP DP  RH WIND       PRES   REMARKS
PATUXENT RIVER CLOUDY    52  48  86 E12       30.04F
ST INIGOES     CLOUDY    52  48  86 NE9       30.03S
LEONARDTOWN*   CLOUDY    50  45  81 NE6       30.05F

$$

MDZ003>005-240900-
NORTH CENTRAL MARYLAND

CITY           SKY/WX    TMP DP  RH WIND       PRES   REMARKS
FREDERICK*     LGT RAIN  52  52 100 CALM      30.10S
HAGERSTOWN APT CLOUDY    53  43  68 E3        30.06F
WESTMINSTER*   CLOUDY    52  46  82 CALM      30.08R

$$

MDZ501>502-240900-
WESTERN MARYLAND

CITY           SKY/WX    TMP DP  RH WIND       PRES   REMARKS
OAKLAND*       CLOUDY    43  36  75 E15G22    30.01S
CUMBERLAND*    CLOUDY    50  45  81 CALM      30.09F

$$

VAZ025>031-240900-
SHENANDOAH VALLEY

CITY           SKY/WX    TMP DP  RH WIND       PRES   REMARKS
WINCHESTER*    CLOUDY    48  45  87 CALM      30.06S
FRONT ROYAL*   CLOUDY    48  46  93 CALM      30.05S
LURAY*         LGT RAIN  48  48 100 NE3       30.04F
NEW MARKET*    CLOUDY    48  46  93 CALM      30.04S
STAUNTON*      LGT RAIN  47  46  99 NE5       30.05S
WAYNESBORO*    CLOUDY    46  46 100 N7        30.02S

$$

WVZ021-048>050-054>055-240900-
EASTERN WEST VIRGINIA PANHANDLE

CITY           SKY/WX    TMP DP  RH WIND       PRES   REMARKS
MARTINSBURG    CLOUDY    51  47  86 CALM      30.06F
PETERSBURG*    LGT RAIN  50  48  93 CALM      30.06R

$$

VAZ036>039-050-240900-
CENTRAL FOOTHILLS

CITY           SKY/WX    TMP DP  RH WIND       PRES   REMARKS
CHARLOTTESVILL LGT RAIN  51  48  89 N5        30.03F
CULPEPER*      LGT RAIN  51  51  97 N3        30.07R
ORANGE*        DRIZZLE   50  48  93 CALM      30.05R
GORDONSVILLE*  CLOUDY    51  49  95 NE5       30.04R
WARRENTON*     DRIZZLE   52  48  84 N5        30.05S

$$

VAZ055>057-240900-
NORTH AND CENTRAL PIEDMONT

CITY           SKY/WX    TMP DP  RH WIND       PRES   REMARKS
FREDERICKSBRG* RAIN      53  49  86 N3        30.05R
STAFFORD*      CLOUDY    51  49  93 CALM      30.09S

$$

NCZ024-NYZ072-PAZ021-071-VAZ022-071-240900-
OTHER REGIONAL OBSERVATIONS

CITY           SKY/WX    TMP DP  RH WIND       PRES   REMARKS
NEW YORK CITY  CLEAR     49  41  74 N3        30.13S
PHILADELPHIA   CLOUDY    51  46  83 SE6       30.11S
PITTSBURGH     PTCLDY    50  33  52 NE7       30.01F
ROANOKE        LGT RAIN  48  47  96 NE6       30.00F
RICHMOND       CLOUDY    51  50  96 N10       30.00S FOG
RALEIGH        DRIZZLE   53  52  96 NE9       29.89F FOG

$$

ANZ530>537-240900-
MARINE OBSERVATIONS

STATION/POSITION TIME  TEMP    WIND        PRES
                       AIR SEA DIR/SP/G
                 (UTC) (F)     (DEG/KT/KT) (MB)
THOMAS PT LIGHT  0800   53 58   80/  9/ 10   N/A
BALT KEY BRIDGE  0742   54      50/  5/  7 1018.5S
COVE POINT       0742   52      80/ 14/ 17 1018.0F
LEWISETTA        0742   54 62   70/ 14/ 19 1016.4F
SOLOMONS ISLAND  0742   53 61   40/  8/ 12   N/A
PINEY POINT      0748           80/  7/  9   N/A

$$





USA.gov is the U.S. government's official web portal to all federal, state and local government web resources and services.